Theta_e
343 344 347 348 348 348 348 348 349 349 348 348 348 348 347 347 345 345 345 344 345 343 342 341 340 341 342 341 340 339 339 339 339 337 335 333 331 329 326 324 323 324 324 324 326 327 325 324 323 323 324 334
337 342 344 344 344 345 345 346 347 347 347 347 346 345 343 341 341 343 345 344 343 343 342 341 341 341 341 341 340 339 339 338 337 335 334 332 330 328 326 324 323 322 322 322 324 324 323 321 322 322 323 330
348 334 340 340 341 342 342 343 344 344 342 342 342 339 337 337 336 337 337 341 341 340 339 337 339 341 342 340 339 340 339 337 337 335 333 332 330 328 326 324 323 322 320 321 321 322 321 321 319 318 324 327
348 337 332 337 337 337 339 340 340 340 337 337 333 331 330 329 336 332 339 328 338 335 336 334 336 339 341 339 338 339 338 338 337 335 333 331 329 327 324 322 320 318 318 317 318 318 318 318 317 322 323 324
347 347 332 334 333 333 334 336 336 337 331 327 324 327 324 327 349 347 344 345 343 329 343 329 326 336 338 338 339 339 338 337 336 335 333 331 328 325 320 317 315 315 315 313 314 315 315 314 318 319 320 321
345 346 338 348 348 347 342 334 332 342 347 337 349 327 338 345 343 343 345 344 338 343 342 337 322 329 335 337 335 337 338 337 335 334 333 330 327 323 319 315 323 316 312 311 312 312 312 314 316 317 317 317
344 345 346 347 345 346 337 342 346 346 347 347 346 346 346 341 343 343 343 344 340 341 330 342 321 326 331 334 333 334 336 336 335 334 333 330 326 322 318 325 322 317 313 312 308 309 311 311 312 315 314 315
343 344 345 345 345 345 346 344 347 347 346 346 347 346 345 344 343 344 344 329 324 332 341 339 322 323 326 327 326 327 333 332 334 334 332 328 324 323 325 327 321 316 312 309 309 310 308 309 311 312 311 311
340 343 344 343 344 345 346 346 345 345 346 346 347 346 345 345 345 345 343 343 342 341 340 341 341 340 338 337 337 326 338 336 336 333 333 329 326 329 328 324 320 317 313 311 309 308 308 309 310 311 311 310
339 340 343 344 343 341 342 342 343 343 344 343 344 342 342 342 342 343 342 343 343 340 341 340 338 337 338 338 337 335 337 337 335 334 333 332 330 328 327 322 320 316 314 312 309 308 308 308 309 309 309 309
339 340 341 341 343 342 343 340 339 342 341 342 345 344 343 342 342 341 341 340 341 342 341 340 338 338 338 338 337 336 336 335 334 332 332 331 330 327 323 320 317 315 311 312 311 309 309 308 308 309 309 309
338 340 340 342 340 338 340 340 341 340 340 341 341 339 339 338 340 340 340 340 339 339 339 339 338 337 337 337 336 334 331 332 331 331 331 332 329 325 323 320 319 317 316 314 314 313 311 310 309 309 308 309
337 340 337 340 341 340 334 338 339 338 338 337 337 337 337 338 338 339 338 338 338 340 339 338 337 336 335 335 335 333 330 328 329 329 330 330 327 327 325 323 322 320 318 318 317 315 313 312 311 310 309 309
335 337 338 337 332 334 335 332 330 331 330 328 329 331 334 334 334 336 337 336 336 334 332 331 330 330 330 333 334 334 331 330 329 329 327 326 325 325 325 325 324 321 321 319 318 316 316 314 311 310 309 309
331 328 327 328 327 327 327 326 326 326 326 325 325 327 329 329 328 331 333 335 335 332 329 329 330 328 329 333 331 331 332 330 328 325 326 325 325 323 324 325 321 322 323 321 319 316 316 313 313 312 312 312
322 322 321 322 323 321 322 324 322 322 322 319 321 324 324 325 326 328 328 329 331 331 328 327 327 327 327 327 326 325 325 323 323 321 319 318 317 320 322 319 319 320 322 321 318 317 314 313 314 314 314 313
319 319 318 317 318 317 317 318 319 319 319 319 319 320 321 322 323 325 327 326 325 324 323 322 322 321 321 321 323 322 321 322 322 320 319 317 316 316 317 320 319 320 320 320 318 317 315 316 315 314 314 313
315 313 313 313 313 314 314 313 313 314 315 315 316 317 318 321 323 323 325 324 322 323 323 321 320 319 318 318 318 319 320 319 318 318 317 316 319 315 317 317 316 318 320 319 319 318 316 316 315 314 313 311
309 309 309 309 308 309 311 310 308 307 310 312 312 313 313 315 317 320 321 320 320 320 320 318 316 316 317 318 319 319 319 319 319 318 316 316 319 317 315 314 312 313 316 316 317 316 315 315 314 313 312 310
306 305 305 305 305 306 307 306 306 304 305 308 308 308 310 311 312 314 316 319 319 318 317 316 315 315 315 316 318 318 317 317 317 316 315 315 318 318 313 312 313 313 314 315 316 315 314 313 312 312 311 310
303 303 302 301 301 301 302 301 302 302 303 303 305 305 305 307 309 311 312 313 315 315 315 315 314 313 314 314 314 312 311 311 314 314 312 310 310 313 311 307 307 307 307 309 311 311 311 311 309 310 309 308
302 302 302 301 300 300 299 299 300 300 301 301 301 303 303 304 306 308 310 310 311 310 310 310 310 310 311 312 311 310 310 310 311 312 312 308 306 308 308 306 304 304 304 307 310 311 310 309 309 308 308 307
303 302 301 301 301 300 299 298 298 299 299 299 300 300 302 303 304 304 307 308 309 309 308 308 308 308 308 309 308 308 308 306 306 307 307 308 304 302 301 301 301 301 304 307 309 309 309 309 308 308 306 305
305 304 302 301 300 299 298 298 297 298 298 298 298 299 300 301 302 303 304 305 306 306 306 307 306 306 307 307 306 305 304 304 304 305 305 304 305 304 303 302 303 303 304 306 309 308 310 309 307 306 304 304
305 304 301 300 299 297 297 297 297 296 296 297 297 298 299 300 300 301 302 302 304 304 303 304 304 305 305 305 305 304 303 304 305 306 307 306 304 304 302 301 303 303 305 306 307 308 308 308 307 305 303 303
301 300 300 299 297 296 296 296 296 295 295 295 296 296 297 298 298 299 299 300 301 301 302 302 302 302 302 303 303 303 303 303 302 304 305 307 305 305 303 300 301 302 304 304 301 301 302 304 306 305 303 303
299 299 299 298 296 295 294 294 295 294 294 294 294 294 295 295 296 297 297 298 298 299 300 300 300 300 300 301 301 301 300 301 301 301 302 303 304 303 303 301 301 301 302 299 301 303 302 301 299 303 301 303
297 297 297 297 296 296 295 293 294 294 294 293 293 292 293 293 294 294 295 296 296 297 297 298 298 299 299 299 300 299 298 298 298 299 300 301 301 303 301 300 299 301 301 300 299 297 298 298 298 297 299 297
296 296 295 295 295 296 295 295 294 293 291 291 291 291 291 291 292 293 293 293 294 294 295 296 296 297 297 297 298 298 297 296 297 297 298 299 299 300 299 298 299 299 299 299 300 298 297 297 297 295 295 297
299 297 296 296 295 294 292 290 290 288 288 289 289 288 290 290 291 291 291 292 292 292 292 293 293 294 294 294 294 295 295 295 295 295 296 297 297 297 298 296 295 296 298 297 298 299 298 297 293 292 293 294
297 296 295 294 293 292 291 288 288 289 289 289 289 290 289 289 290 290 290 290 291 291 291 292 292 292 292 292 292 292 292 291 291 292 293 294 294 295 296 295 292 293 294 293 294 297 297 297 297 297 292 287
Wind_Speed
7 7 6 7 7 7 6 7 7 7 6 5 5 4 5 2 2 3 4 4 5 5 3 5 3 5 6 6 6 7 10 10 10 10 9 9 9 9 9 9 9 8 7 7 7 8 7 8 7 7 8 2
6 8 6 7 7 6 7 6 6 6 5 4 2 4 5 5 4 3 4 4 3 4 4 4 3 4 5 5 6 10 10 11 11 10 10 9 9 9 9 9 9 8 8 7 7 7 7 6 6 5 7 3
7 7 8 5 6 5 6 6 6 6 5 4 3 4 5 5 5 5 6 5 4 4 5 5 4 4 5 5 6 10 11 11 11 12 10 9 9 9 9 9 9 9 9 8 8 8 7 5 5 3 3 4
9 6 7 7 3 5 5 5 5 5 6 5 6 6 5 4 4 6 7 7 3 5 5 5 5 4 2 2 3 9 10 11 12 12 11 9 9 8 8 8 8 8 9 9 8 8 6 6 6 2 3 4
8 5 4 6 7 4 5 6 4 4 5 5 6 6 6 4 4 5 4 6 4 5 5 6 5 4 4 4 3 8 9 11 13 13 12 9 8 8 7 6 7 8 8 8 8 6 5 6 2 4 4 4
6 6 4 9 9 8 6 4 5 5 5 5 4 4 5 6 5 5 5 4 4 4 5 6 5 4 6 7 7 7 8 11 12 12 12 10 8 8 6 1 0 3 6 6 5 4 4 2 4 4 4 4
6 7 7 5 3 5 7 8 7 8 6 7 6 5 6 6 5 5 5 3 0 2 3 3 3 3 7 7 7 7 9 11 11 11 12 11 9 8 6 1 1 2 1 1 4 2 2 3 3 3 4 4
6 6 6 6 4 4 6 6 6 7 8 6 6 5 5 5 5 6 5 5 6 3 5 4 5 4 4 7 7 8 8 10 9 9 11 10 9 6 2 2 1 2 1 2 2 2 2 2 2 3 3 3
5 5 5 6 7 6 2 1 5 6 7 7 7 7 7 6 5 6 5 5 4 5 5 4 4 5 5 5 6 8 4 5 5 5 5 4 4 2 2 2 2 2 2 2 2 2 2 2 2 2 2 2
4 5 5 5 4 4 5 5 4 2 3 6 6 6 6 5 6 7 5 4 5 5 5 5 3 3 5 7 6 6 4 5 5 2 3 3 3 2 2 2 2 2 3 2 3 3 3 3 2 2 2 2
4 5 4 4 2 4 3 2 2 2 2 2 2 4 3 5 5 6 6 6 5 5 5 5 5 4 4 6 5 5 6 6 5 3 3 2 2 3 3 3 2 2 1 2 2 2 2 3 3 3 2 2
5 4 4 2 4 3 2 1 3 3 3 3 3 3 2 4 5 5 5 5 5 6 5 5 4 3 3 4 3 1 2 1 0 2 3 1 3 3 2 2 2 2 2 1 1 1 2 2 2 3 3 2
4 3 3 3 2 2 4 3 3 5 5 5 5 4 3 1 4 3 3 4 3 3 3 3 3 2 2 2 3 3 2 2 2 2 2 2 2 2 2 2 1 1 1 1 1 2 2 2 2 2 2 2
4 4 5 6 7 5 5 7 7 7 6 6 5 6 5 5 4 3 3 3 2 1 3 2 3 4 4 1 1 2 4 3 2 1 0 1 2 2 2 2 1 1 1 1 1 2 3 3 3 2 2 2
5 8 8 7 6 7 7 7 8 7 6 6 7 7 7 6 6 5 4 2 3 4 5 4 3 2 1 1 3 3 2 1 2 2 2 2 2 1 2 0 1 1 1 2 2 2 3 3 3 3 3 3
8 8 8 8 8 8 8 7 6 7 7 7 7 8 7 7 7 6 6 7 6 6 6 5 5 6 6 5 3 3 4 3 3 3 3 4 5 4 3 3 2 3 2 2 2 2 2 2 3 3 4 4
8 8 7 8 8 7 6 7 7 8 8 8 7 7 8 8 8 7 7 8 8 7 7 6 6 5 5 4 3 4 5 4 3 3 4 4 3 3 2 1 2 2 2 2 2 1 2 2 2 3 4 3
8 8 7 7 7 6 8 8 8 8 7 7 6 7 8 8 9 8 7 7 7 6 7 7 6 5 4 3 4 4 4 4 3 4 3 2 1 2 2 3 3 3 3 2 2 2 2 2 2 3 3 3
9 8 8 8 8 8 8 8 8 7 6 7 6 6 8 9 9 9 9 7 7 7 6 7 7 7 5 4 5 6 5 4 3 3 3 2 2 2 3 2 2 2 2 2 2 2 1 2 2 3 3 3
9 9 9 8 8 8 9 8 8 7 7 7 7 8 8 9 9 9 9 9 8 8 9 8 8 7 6 6 6 5 4 4 5 3 3 3 3 3 3 3 2 1 2 2 2 2 2 2 2 3 3 3
11 10 10 10 9 9 9 8 8 7 7 7 8 8 8 9 9 10 10 10 10 10 10 9 8 7 8 7 6 5 5 5 5 5 4 4 5 4 3 4 4 4 4 3 3 2 2 1 1 2 3 3
9 9 9 8 8 9 10 9 8 7 7 8 8 8 8 8 8 9 9 9 8 9 9 9 8 7 7 6 5 5 6 6 4 4 4 5 5 4 4 3 3 3 2 2 3 2 2 2 2 2 2 2
11 11 10 8 9 10 10 8 8 7 8 8 8 8 9 9 8 8 9 9 8 8 8 8 8 7 7 6 6 6 7 7 7 7 6 6 5 5 5 4 4 5 5 4 3 3 3 3 3 2 2 2
7 7 8 8 7 9 8 8 8 8 8 8 8 9 9 9 9 9 9 9 9 9 8 8 8 8 7 7 7 7 8 7 6 6 6 6 5 5 5 6 5 6 5 4 3 3 3 2 2 2 3 3
6 8 8 8 9 8 6 7 7 9 8 9 8 9 9 9 8 9 9 10 9 9 8 8 7 7 8 8 8 8 8 8 8 6 4 5 5 5 5 6 6 7 5 4 5 5 3 3 0 4 3 4
7 7 7 8 7 7 7 7 7 8 8 8 8 10 10 9 9 9 10 9 9 9 8 8 7 8 8 8 8 9 9 10 9 10 8 5 5 6 7 7 9 9 8 5 7 7 7 1 1 4 3 5
8 8 8 9 8 8 9 8 8 8 7 8 9 9 10 9 9 9 9 10 9 8 8 8 8 8 8 9 8 8 9 10 10 9 9 9 6 4 6 7 8 9 9 6 7 4 4 3 5 4 3 7
10 11 12 12 11 10 9 8 8 9 9 10 11 11 10 10 10 10 10 11 10 9 9 9 9 8 8 8 8 8 9 9 9 9 8 8 8 6 6 6 7 9 9 7 8 5 4 4 3 3 3 10
10 11 12 11 12 11 10 8 8 8 9 9 9 9 10 10 10 10 10 10 11 10 10 10 9 9 8 8 8 8 9 9 9 8 8 9 8 9 6 6 5 7 8 10 9 6 5 3 4 5 8 11
5 7 9 9 9 9 8 8 7 8 7 7 8 8 7 9 10 10 10 10 10 10 9 10 9 9 8 9 8 8 8 8 8 10 10 9 8 9 9 7 6 6 6 8 9 9 7 4 3 7 8 7
5 6 6 8 9 9 8 10 7 6 6 7 6 7 8 8 9 9 10 10 10 10 10 9 9 9 9 8 8 8 8 9 9 8 8 8 9 8 7 7 8 8 6 6 8 7 6 5 3 4 5 6
Wind_Direction
189 208 202 194 189 199 184 176 184 170 168 181 183 177 176 185 118 151 150 181 157 154 174 129 158 138 136 124 112 85 86 86 88 86 84 80 72 63 57 54 56 55 56 54 52 47 43 34 27 10 329 61
218 194 206 199 198 195 185 183 180 169 163 166 176 143 118 127 123 128 125 136 139 177 139 130 125 178 146 135 111 107 106 107 105 100 91 81 76 67 60 58 57 53 48 49 53 51 43 40 20 9 323 28
205 209 192 193 199 195 175 183 175 162 161 163 101 93 108 115 138 127 108 102 119 135 137 145 150 203 153 142 123 122 120 117 112 107 92 84 79 69 60 57 58 54 47 41 39 37 32 17 7 325 307 34
228 196 208 185 192 205 200 177 171 161 155 141 122 115 121 130 147 157 137 115 129 140 140 150 228 156 89 157 157 134 127 120 114 106 96 87 80 73 63 60 60 55 53 46 41 32 19 1 296 333 34 17
239 210 194 195 186 196 224 170 178 168 137 140 136 144 137 151 222 229 215 159 194 139 180 180 198 163 162 149 164 141 135 123 117 110 108 106 95 87 82 80 81 65 58 57 45 33 15 302 325 32 21 6
237 227 203 216 213 219 216 207 189 188 219 186 200 163 164 220 235 243 237 229 184 208 177 173 175 185 159 138 149 147 133 123 121 119 123 120 111 106 100 177 146 102 93 74 55 40 326 338 31 29 16 17
230 228 223 234 210 216 223 209 203 230 232 239 230 220 226 236 236 247 251 251 175 313 64 67 148 156 145 150 155 146 131 132 133 137 131 127 132 127 146 180 58 52 13 106 151 187 39 40 35 23 25 19
236 224 218 207 200 229 224 197 215 229 228 226 229 234 237 234 243 246 248 106 130 144 204 182 142 135 147 146 144 145 140 138 156 143 130 130 138 144 153 58 45 37 38 21 11 24 31 42 37 31 26 29
230 232 222 216 211 216 203 251 252 239 224 214 203 210 219 218 224 235 248 231 222 225 227 225 202 180 191 191 181 174 174 180 162 170 141 144 181 101 130 99 58 15 22 27 12 20 20 31 28 28 34 29
223 247 223 213 214 229 250 239 203 232 250 258 247 237 234 225 228 238 238 235 234 235 239 234 230 216 214 209 203 193 222 207 194 207 168 171 168 143 89 88 75 30 12 13 9 13 16 4 10 16 20 22
206 218 230 219 181 223 244 285 289 156 206 230 285 252 238 224 232 244 253 247 230 228 228 228 229 211 214 217 215 207 224 208 188 185 183 196 150 99 99 112 121 113 75 22 7 17 14 8 359 1 10 15
185 201 215 195 223 229 121 64 43 11 33 67 62 20 327 284 254 229 233 245 245 244 248 239 236 237 219 211 202 142 28 6 35 193 204 169 108 116 135 159 161 142 132 106 18 15 8 3 357 5 2 10
169 170 170 187 123 86 84 83 74 44 37 37 38 49 26 4 290 221 213 237 252 269 239 218 221 229 252 243 208 181 143 146 225 240 207 156 140 142 157 166 191 147 123 120 58 353 8 342 356 8 355 360
151 102 105 72 47 37 51 51 49 54 54 41 32 41 32 27 348 330 233 223 182 121 41 51 52 27 23 320 284 218 193 183 227 292 355 87 140 118 174 207 142 205 128 91 58 11 353 349 347 352 346 342
75 54 50 62 46 55 63 66 64 64 59 51 45 43 44 46 39 37 36 87 113 92 78 69 85 94 166 355 358 341 301 36 21 28 13 354 9 138 226 244 94 259 77 73 68 48 360 359 338 345 342 335
60 64 57 64 67 54 55 57 63 62 55 48 44 41 36 39 45 54 65 62 68 74 70 58 44 29 24 34 17 37 37 39 24 31 43 33 9 358 346 30 11 359 358 47 47 28 23 353 343 343 339 333
60 65 61 60 62 59 54 57 55 56 52 49 47 44 41 48 51 53 68 75 70 71 75 74 68 65 50 38 29 46 56 67 66 59 51 47 37 22 354 6 33 359 328 27 40 20 29 339 342 347 326 335
54 51 56 55 57 52 58 57 57 52 55 50 49 55 47 55 56 52 58 65 75 83 86 79 71 66 68 70 74 76 75 68 63 69 62 50 238 71 40 31 22 348 333 24 21 18 13 335 353 335 319 330
50 47 53 52 48 48 54 59 56 43 43 51 48 49 47 46 48 50 51 54 67 65 66 68 57 46 42 51 61 61 58 66 57 69 68 30 356 38 45 52 55 2 347 346 350 356 345 349 342 316 321 319
58 55 54 55 49 51 48 51 53 42 32 39 39 40 44 39 45 45 50 58 64 69 61 62 61 51 38 42 62 64 62 70 73 67 70 52 10 3 50 19 28 317 351 334 342 355 349 352 334 329 322 325
67 63 59 56 52 50 49 50 47 44 37 37 39 39 34 27 37 44 47 53 59 70 67 65 65 57 59 60 62 53 49 50 56 72 73 57 47 47 56 30 10 352 354 347 326 340 346 347 330 331 344 335
72 69 69 63 59 56 54 47 42 38 38 38 35 35 34 25 34 38 45 52 63 71 72 70 64 57 49 53 55 60 59 55 39 45 60 65 44 41 51 43 12 339 324 316 319 336 345 349 333 332 339 7
87 81 76 72 63 54 50 44 41 38 43 39 38 36 27 25 31 30 35 40 49 63 67 68 65 62 53 56 53 53 51 42 37 36 37 63 73 60 49 34 11 348 330 324 327 336 339 332 339 333 15 24
94 89 81 74 66 61 52 49 47 42 43 39 40 34 33 32 36 33 33 35 44 54 57 61 58 58 51 53 56 53 50 47 46 39 45 44 59 69 63 42 15 359 338 317 293 322 323 336 338 27 46 71
97 96 93 78 70 69 55 54 56 53 44 45 43 37 40 39 38 35 35 35 41 51 58 57 54 53 51 54 55 57 54 49 47 42 44 64 56 47 52 42 18 4 313 331 336 336 318 315 285 81 84 81
77 68 74 88 78 76 60 54 54 56 47 47 44 41 40 42 39 39 41 36 41 48 53 58 58 52 49 51 56 55 51 43 41 36 32 18 71 52 48 47 20 11 350 16 352 333 331 268 351 91 94 38
86 85 83 90 90 85 81 66 64 66 60 53 53 46 43 41 40 40 41 39 38 40 43 52 57 54 52 49 52 58 53 46 43 35 33 31 27 58 61 63 37 28 22 4 336 294 298 358 347 139 112 5
87 91 93 89 92 88 85 86 77 73 61 54 50 47 42 41 39 40 44 39 40 44 43 46 53 56 55 54 53 59 60 51 45 37 33 33 34 30 63 51 52 37 32 25 356 11 340 315 319 335 29 347
104 105 101 102 101 102 100 88 77 69 58 54 56 55 44 39 40 44 46 44 42 44 45 43 46 51 53 55 52 58 61 56 46 41 37 33 42 35 41 56 58 51 41 39 27 14 359 355 353 19 333 329
120 117 120 126 121 111 97 83 68 61 65 59 56 57 56 48 44 46 48 47 46 45 46 47 44 46 51 53 52 54 60 58 52 41 37 29 32 38 33 49 54 60 59 49 42 42 51 27 2 337 328 344
103 98 92 90 91 95 99 102 85 86 80 82 76 70 63 59 48 44 50 47 46 46 44 46 42 43 46 49 52 51 57 56 52 44 35 28 35 31 26 32 53 40 32 57 46 40 50 50 42 2 356 3